Regional Weather Roundup
Issued by NWS Green Bay, WI

Home | Current Version | Previous Version | Text Only | Print | Product List | Glossary On
Versions: 1 2 3 4 5 6 7 8 9 10 11 12 13 14 15 16 17 18 19 20 21 22 23 24 25 26 27 28 29 30 31 32 33 34 35 36 37 38 39 40 41 42 43 44 45 46 47 48 49 50
000
ASUS43 KGRB 261700
RWRGRB

NORTH-CENTRAL AND NORTHEAST WISCONSIN REGIONAL WEATHER ROUNDUP
NATIONAL WEATHER SERVICE GREEN BAY WI
1200 PM CDT FRI AUG 26 2016

WIZ005-009-010>012-018-019-261800-
NORTH CENTRAL WISCONSIN

CITY           SKY/WX    TMP DP  RH WIND       PRES   REMARKS
IRONWOOD       MOSUNNY   65  51  60 NW10      30.17S
MANITOWISH WTR NOT AVBL
ARBOR VITAE    NOT AVBL
EAGLE RIVER    NOT AVBL
LAND O LAKES   NOT AVBL
RHINELANDER    MOSUNNY   67  54  63 MISG      30.18S
PHILLIPS       PTSUNNY   66  52  62 W5        30.18S
ANTIGO         NOT AVBL
TOMAHAWK       NOT AVBL
MERRILL        PTSUNNY   67  52  58 NW5       30.19S
$$

WIZ013-073-261800-
NORTHEAST WISCONSIN

CITY           SKY/WX    TMP DP  RH WIND       PRES   REMARKS
IRON MOUNTAIN  MOSUNNY   69  53  56 W9        30.13F
MARINETTE        N/A    N/A N/A N/A SW6       30.13F
$$

WIZ017-030-035>037-045-261800-
CENTRAL WISCONSIN

CITY           SKY/WX    TMP DP  RH WIND       PRES   REMARKS
MEDFORD        NOT AVBL
WAUSAU         MOSUNNY   68  53  58 VRB7      30.16F
MOSINEE        MOSUNNY   66  52  59 NW8       30.19F
MARSHFIELD     SUNNY     68  52  56 NW8       30.18F
WISC RAPIDS    SUNNY     71  55  56 VRB6      30.19F
STEVENS POINT  NOT AVBL
WAUPACA        NOT AVBL
SHAWANO        NOT AVBL
CLINTONVILLE   MOSUNNY   70  52  52 NW8       30.16S
WAUTOMA        SUNNY     69  56  62 NW6       30.19S
$$

WIZ038-039-048-051-261800-
FOX VALLEY

CITY           SKY/WX    TMP DP  RH WIND       PRES   REMARKS
NWS GREEN BAY  SUNNY     70  58  65 W9        30.15F
APPLETON       PTSUNNY   68  54  60 W7        30.16F
OSHKOSH        SUNNY     70  58  65 NW7       30.16F
FOND DU LAC    MOSUNNY   71  56  58 W8        30.18S
$$

WIZ022-050-052-261800-
EAST CENTRAL WISCONSIN

CITY           SKY/WX    TMP DP  RH WIND       PRES   REMARKS
EPHRAIM        NOT AVBL
WASHINGTON ISL NOT AVBL
STURGEON BAY   SUNNY     69  57  65 SW8       30.15F
MANITOWOC      NOT AVBL
SHEBOYGAN      SUNNY     72  55  55 NW8       30.17S
$$

LMZ563-521-522-541>543-261800-
LAKESHORE

STATION/POSITION TIME  TEMP    WIND        PRES    VSBY  WAVE
                       AIR SEA DIR/SP/G                  HT/PER
                 (UTC) (F)     (DEG/KT/KT) (MB)    (MI)  (FT/S)
SHEBOYGAN LKSHOR 1600   68     310/  6/  8 1021.1F
KEWAUNEE LKSHORE 1600   69     280/  5/  9 1020.5F
NORTHPORT PIER   1600   68     310/  5/  8 1020.3S
N MID LAKE BUOY  1550   65 71  260/ 10/ 12 1019.8R         1/ 3
S GREEN BAY BUOY 1600   67 72  260/  4/  6 1020.5F
CHAMBERS ISLAND  1600   68     180/  3/  7 1020.3F
MENOMINEE LKSHOR 1600   69     270/  4/  7 1019.7F
$$




USA.gov is the U.S. government's official web portal to all federal, state and local government web resources and services.